Location: Banff
(51.1667°N, 115.5667°W)
Time: 18:22:14
(UTC+00:00)

SR - All Passes

Search period start: 04 December 2020 00:00
Search period end: 14 December 2020 00:00
Orbit: 579 x 877 km, 66.7° (Epoch: 03 December)

Date Brightness Start Highest point End Pass type
(mag) Time Alt. Az. Time Alt. Az. Time Alt. Az.
04 Dec - 00:34:25 10° S 00:38:25 35° ESE 00:42:42 10° NE visible
04 Dec - 02:16:07 10° WSW 02:20:23 42° NW 02:25:02 10° NNE visible
04 Dec - 04:00:47 10° NW 04:03:47 16° NNW 04:06:56 10° NNE visible
04 Dec - 05:45:09 10° NNW 05:47:53 14° N 05:50:44 10° NE night (unlit)
04 Dec - 07:27:10 10° NNW 07:31:37 28° NNE 07:36:21 10° E night (unlit)
04 Dec - 09:08:57 10° NW 09:14:15 84° SW 09:19:57 10° SSE night (unlit)
04 Dec - 10:52:13 10° WNW 10:55:43 18° WSW 10:59:20 10° SSW night (unlit)
04 Dec - 23:45:59 10° SSE 23:49:03 19° ESE 23:52:16 10° ENE daylight
05 Dec - 01:26:03 10° SW 01:30:29 72° NW 01:35:20 10° NE visible
05 Dec - 03:09:54 10° WNW 03:13:26 21° NNW 03:17:11 10° NNE visible
05 Dec - 04:54:54 10° NNW 04:57:25 14° N 05:00:00 10° NNE visible
05 Dec - 06:37:32 10° NNW 06:41:24 21° NNE 06:45:29 10° ENE night (unlit)
05 Dec - 08:19:14 10° NNW 08:24:27 61° NE 08:30:03 10° SE night (unlit)
05 Dec - 10:01:39 10° NW 10:06:19 31° WSW 10:11:14 10° S night (unlit)
06 Dec - 00:36:24 10° SSW 00:40:46 63° ESE 00:45:30 10° NE visible
06 Dec - 02:19:14 10° W 02:23:14 29° NW 02:27:31 10° NNE visible
06 Dec - 04:04:17 10° NW 04:06:56 14° N 04:09:43 10° NNE visible
06 Dec - 05:47:48 10° NNW 05:51:03 17° NNE 05:54:27 10° ENE night (unlit)
06 Dec - 07:29:35 10° NNW 07:34:30 39° NE 07:39:45 10° ESE night (unlit)
06 Dec - 09:11:35 10° NW 09:16:45 52° WSW 09:22:18 10° SSE night (unlit)
06 Dec - 23:47:17 10° S 23:51:15 33° ESE 23:55:29 10° NE daylight
07 Dec - 01:28:51 10° WSW 01:33:09 44° NW 01:37:51 10° NNE visible
07 Dec - 03:13:25 10° WNW 03:16:31 17° NNW 03:19:46 10° NNE visible
07 Dec - 04:57:53 10° NNW 05:00:37 14° N 05:03:29 10° NE visible
07 Dec - 06:39:57 10° NNW 06:44:24 27° NNE 06:49:06 10° E night (unlit)
07 Dec - 08:21:44 10° NW 08:27:04 87° SW 08:32:48 10° SE night (unlit)
07 Dec - 10:04:53 10° WNW 10:08:34 19° WSW 10:12:24 10° SSW night (unlit)
07 Dec - 22:58:56 10° SSE 23:01:53 18° ESE 23:04:59 10° ENE daylight
08 Dec - 00:38:49 10° SW 00:43:16 76° NW 00:48:08 10° NE visible
08 Dec - 02:22:34 10° WNW 02:26:11 22° NNW 02:30:01 10° NNE visible
08 Dec - 04:07:35 10° NNW 04:10:09 14° N 04:12:47 10° NNE visible
08 Dec - 05:50:18 10° NNW 05:54:09 21° NNE 05:58:12 10° ENE night (unlit)
08 Dec - 07:32:01 10° NNW 07:37:14 58° NE 07:42:51 10° SE night (unlit)
08 Dec - 09:14:23 10° NW 09:19:09 32° WSW 09:24:10 10° S night (unlit)
08 Dec - 23:49:13 10° SSW 23:53:34 60° ESE 23:58:19 10° NE daylight
09 Dec - 01:31:55 10° W 01:35:59 30° NW 01:40:21 10° NNE visible
09 Dec - 03:16:56 10° NW 03:19:39 15° N 03:22:31 10° NNE visible
09 Dec - 05:00:33 10° NNW 05:03:48 17° NNE 05:07:11 10° NE visible
09 Dec - 06:42:22 10° NNW 06:47:16 38° NE 06:52:30 10° ESE night (unlit)
09 Dec - 08:24:20 10° NW 08:29:35 55° WSW 08:35:10 10° SSE night (unlit)
09 Dec - 10:09:40 10° W 10:10:42 10° WSW 10:11:44 10° WSW night (unlit)
09 Dec - 23:00:08 10° S 23:04:03 31° ESE 23:08:15 10° NE daylight
10 Dec - 00:41:34 10° WSW 00:45:55 47° NW 00:50:41 10° NNE visible
10 Dec - 02:26:04 10° WNW 02:29:14 17° NNW 02:32:36 10° NNE visible
10 Dec - 04:10:35 10° NNW 04:13:21 14° N 04:16:13 10° NE visible
10 Dec - 05:52:44 10° NNW 05:57:09 27° NNE 06:01:50 10° E night (unlit)
10 Dec - 07:34:31 10° NW 07:39:53 89° NE 07:45:38 10° SE night (unlit)
10 Dec - 09:17:33 10° WNW 09:21:25 20° WSW 09:25:26 10° SSW night (unlit)
10 Dec - 22:11:53 10° SSE 22:14:43 17° ESE 22:17:41 10° ENE daylight
10 Dec - 23:51:34 10° SW 23:56:03 80° NW 00:00:57 10° NE daylight
11 Dec - 01:35:14 10° W 01:38:55 22° NNW 01:42:52 10° NNE visible
11 Dec - 03:20:16 10° NNW 03:22:52 14° N 03:25:34 10° NNE visible
11 Dec - 05:03:05 10° NNW 05:06:54 20° NNE 05:10:55 10° ENE visible
11 Dec - 06:44:48 10° NNW 06:50:02 56° NE 06:55:38 10° SE night (unlit)
11 Dec - 08:27:07 10° NW 08:31:59 34° WSW 08:37:06 10° S night (unlit)
11 Dec - 23:02:00 10° SSW 23:06:22 56° ESE 23:11:06 10° NE daylight
12 Dec - 00:44:36 10° W 00:48:43 31° NW 00:53:10 10° NNE visible
12 Dec - 02:29:34 10° NW 02:32:23 15° N 02:35:20 10° NNE visible
12 Dec - 04:13:18 10° NNW 04:16:31 16° NNE 04:19:54 10° NE visible
12 Dec - 05:55:09 10° NNW 06:00:02 37° NE 06:05:15 10° ESE night (unlit)
12 Dec - 07:37:06 10° NW 07:42:24 59° WSW 07:48:02 10° SSE night (unlit)
12 Dec - 09:21:51 10° W 09:23:33 11° WSW 09:25:16 10° WSW night (unlit)
12 Dec - 22:13:00 10° S 22:16:52 30° ESE 22:21:00 10° NE daylight
12 Dec - 23:54:17 10° WSW 23:58:41 49° NW 00:03:30 10° NNE daylight
13 Dec - 01:38:42 10° WNW 01:41:59 18° NNW 01:45:25 10° NNE visible
13 Dec - 03:23:17 10° NNW 03:26:04 14° N 03:28:58 10° NE visible
13 Dec - 05:05:31 10° NNW 05:09:54 26° NNE 05:14:34 10° E visible
13 Dec - 06:47:17 10° NW 06:52:41 85° NE 06:58:26 10° SE night (unlit)
13 Dec - 08:30:14 10° WNW 08:34:15 21° WSW 08:38:26 10° SSW night (unlit)
13 Dec - 21:24:51 10° SE 21:27:32 16° ESE 21:30:21 10° ENE daylight
13 Dec - 23:04:19 10° SW 23:08:49 85° NW 23:13:46 10° NE daylight
